Simultaneous Nadir Overpasses (SNOs) Predictions

Prediction of SNOs between GOES-16 and METOP-A Satellite Orbit:

Table of predicted SNOs for the next 14.0 days since TLE Epoch: 12/12/2020
Index Date Time (GOES-16) GOES-16 Lat,Lon METOP-A Lat,Lon Distance(km) Time Diff (sec)
1 12/13/2020 01:39:19 0.01, -75.13 -0.81, -78.73 410.63 80
2 12/14/2020 01:21:19 0.00, -75.13 0.31, -73.75 156.28 80
3 12/15/2020 13:37:31 0.00, -75.15 0.71, -78.35 364.72 80
4 12/16/2020 13:16:51 0.00, -75.15 -0.40, -73.37 202.42 80
5 12/18/2020 01:38:31 -0.00, -75.12 -0.63, -78.01 328.12 80
6 12/19/2020 01:15:11 -0.00, -75.13 0.43, -73.02 239.52 80
7 12/20/2020 13:36:43 0.00, -75.17 0.52, -77.63 280.03 80
8 12/21/2020 13:13:23 0.00, -75.17 -0.54, -72.64 288.17 80
9 12/23/2020 01:35:03 -0.00, -75.16 -0.49, -77.27 240.67 80
10 12/24/2020 01:11:44 -0.00, -75.18 0.63, -72.30 327.91 80
11 12/25/2020 13:33:15 0.00, -75.23 0.38, -76.90 190.39 80
